EW8654 Weather Reports


Display with metric or nautical units.
time (UTC)temp
F
wind
direction
speed
MPH
gust
MPH
rain 1hr
in
rain 24hr
in
rain mn
in
humidity
%
barometer
mb
20190123005127 64 294 1.0 3.0 0.00 0.00 0.00 83 1027.3
20190123004124 62 290 1.0 3.0 0.00 0.00 0.00 87 1027.2
20190123003125 63 283 1.0 3.0 0.00 0.00 0.00 87 1027.2
20190123002125 63 256 3.0 6.0 0.00 0.00 0.00 86 1027.2
20190123001124 64 266 3.0 5.0 0.00 0.00 0.00 85 1027.3
20190123000124 64 257 4.0 6.0 0.00 0.00 0.00 86 1027.5
20190122235124 65 256 4.0 7.0 0.00 0.00 0.00 83 1027.5
20190122234124 67 296 2.0 4.0 0.00 0.00 0.00 80 1027.4
20190122233128 66 302 2.0 4.0 0.00 0.00 0.00 76 1027.3
20190122232127 66 265 3.0 6.0 0.00 0.00 0.00 70 1027.3
20190122231124 67 348 3.0 4.0 0.00 0.00 0.00 68 1027.5
20190122230129 67 334 2.0 4.0 0.00 0.00 0.00 69 1027.3
20190122225128 66 9 2.0 4.0 0.00 0.00 0.00 69 1027.3
20190122224125 66 313 2.0 4.0 0.00 0.00 0.00 69 1027.3
20190122223127 66 315 3.0 5.0 0.00 0.00 0.00 68 1027.3
20190122222147 66 308 2.0 4.0 0.00 0.00 0.00 70 1027.3
20190122221125 64 353 3.0 4.0 0.00 0.00 0.00 66 1027.4
20190122220124 64 24 3.0 5.0 0.00 0.00 0.00 69 1027.4
20190122215126 64 9 2.0 5.0 0.00 0.00 0.00 74 1027.4
20190122214125 64 354 3.0 4.0 0.00 0.00 0.00 74 1027.6
20190122213125 63 323 2.0 4.0 0.00 0.00 0.00 76 1027.7
20190122212127 62 346 2.0 5.0 0.00 0.00 0.00 77 1028.0
20190122211126 62 331 3.0 5.0 0.00 0.00 0.00 78 1028.2
20190122210127 61 285 3.0 5.0 0.00 0.00 0.00 79 1028.4
20190122205124 60 262 3.0 6.0 0.00 0.00 0.00 81 1028.4
20190122204126 59 264 3.0 6.0 0.00 0.00 0.00 81 1028.6
20190122203128 60 260 3.0 6.0 0.00 0.00 0.00 83 1028.6
20190122202125 59 279 2.0 5.0 0.00 0.00 0.00 83 1028.6
20190122201128 59 322 2.0 3.0 0.00 0.00 0.00 88 1028.8
20190122200126 58 319 2.0 5.0 0.00 0.00 0.00 90 1029.0
20190122195124 58 327 3.0 4.0 0.00 0.00 0.00 90 1029.0
20190122194125 57 311 2.0 5.0 0.00 0.00 0.00 90 1029.2
20190122193124 56 329 3.0 4.0 0.00 0.00 0.00 90 1029.3
20190122192124 55 289 2.0 3.0 0.00 0.00 0.00 90 1029.4
20190122191124 53 324 2.0 4.0 0.00 0.00 0.00 90 1029.8
20190122190124 53 316 2.0 4.0 0.00 0.00 0.00 90 1029.7
20190122185126 52 331 3.0 5.0 0.00 0.00 0.00 90 1029.7
20190122184126 51 327 3.0 6.0 0.00 0.00 0.00 90 1029.7
20190122183127 50 283 2.0 4.0 0.00 0.00 0.00 90 1029.7
20190122182127 50 316 2.0 4.0 0.00 0.00 0.00 90 1029.8
20190122181126 50 290 2.0 4.0 0.00 0.00 0.00 90 1029.7
20190122180126 48 279 2.0 4.0 0.00 0.00 0.00 90 1029.5
20190122175124 47 263 1.0 3.0 0.00 0.00 0.00 90 1029.5
20190122174124 46 282 1.0 3.0 0.00 0.00 0.00 90 1029.4
20190122173127 45 289 1.0 4.0 0.00 0.00 0.00 90 1029.2
20190122172124 44 318 1.0 3.0 0.00 0.00 0.00 90 1029.3
20190122171125 43 313 1.0 3.0 0.00 0.00 0.00 90 1029.4
20190122170125 43 290 1.0 3.0 0.00 0.00 0.00 90 1029.1
20190122165124 42 307 1.0 3.0 0.00 0.00 0.00 90 1029.1
20190122164126 42 305 1.0 4.0 0.00 0.00 0.00 90 1029.2
20190122163124 42 330 1.0 3.0 0.00 0.00 0.00 90 1029.0
20190122162125 41 349 2.0 4.0 0.00 0.00 0.00 90 1028.5
20190122161124 40 286 1.0 3.0 0.00 0.00 0.00 90 1028.3
20190122160124 40 284 0.0 2.0 0.00 0.00 0.00 90 1028.1
20190122155124 38 281 1.0 3.0 0.00 0.00 0.00 90 1028.1
20190122154125 38 256 1.0 2.0 0.00 0.00 0.00 90 1028.0
20190122153124 38 180 0.0 0.0 0.00 0.00 0.00 90 1028.0
20190122152126 38 286 1.0 2.0 0.00 0.00 0.00 90 1028.1
20190122151124 38 282 1.0 3.0 0.00 0.00 0.00 90 1028.3
20190122150124 38 289 2.0 3.0 0.00 0.00 0.00 90 1027.9
20190122145126 37 270 0.0 2.0 0.00 0.00 0.00 90 1027.9
20190122144124 37 292 0.0 1.0 0.00 0.00 0.00 90 1027.8
20190122143127 37 270 0.0 2.0 0.00 0.00 0.00 90 1028.2
20190122142128 38 275 0.0 2.0 0.00 0.00 0.00 90 1027.8
20190122141124 38 285 0.0 2.0 0.00 0.00 0.00 90 1027.6
20190122140124 38 315 0.0 0.0 0.00 0.00 0.00 90 1027.7
20190122135125 38 290 0.0 2.0 0.00 0.00 0.00 90 1027.7
20190122134127 39 158 0.0 1.0 0.00 0.00 0.00 90 1027.4
20190122133124 39 350 2.0 4.0 0.00 0.00 0.00 90 1027.4
20190122132123 39 340 2.0 3.0 0.00 0.00 0.00 90 1027.5
20190122131124 39 316 1.0 3.0 0.00 0.00 0.00 90 1027.7
20190122130123 39 322 1.0 2.0 0.00 0.00 0.00 90 1027.7
20190122125123 39 323 1.0 3.0 0.00 0.00 0.00 90 1027.7
20190122124124 39 342 2.0 3.0 0.00 0.00 0.00 90 1027.6
20190122123126 40 0 1.0 3.0 0.00 0.00 0.00 90 1027.7
20190122122124 40 340 2.0 4.0 0.00 0.00 0.00 90 1027.5
20190122121124 40 316 2.0 4.0 0.00 0.00 0.00 90 1027.4
20190122120124 40 335 2.0 4.0 0.00 0.00 0.00 90 1027.4
20190122115123 40 321 1.0 4.0 0.00 0.00 0.00 90 1027.4
20190122114124 41 313 2.0 3.0 0.00 0.00 0.00 90 1027.6
20190122113123 41 333 2.0 4.0 0.00 0.00 0.00 90 1027.7
20190122112125 41 337 3.0 4.0 0.00 0.00 0.00 90 1027.6
20190122111125 41 5 2.0 3.0 0.00 0.00 0.00 90 1027.4
20190122110124 41 15 2.0 4.0 0.00 0.00 0.00 90 1027.9
20190122105124 41 345 3.0 4.0 0.00 0.00 0.00 90 1027.9
20190122104124 41 3 3.0 5.0 0.00 0.00 0.00 90 1027.9
20190122103125 41 352 3.0 4.0 0.00 0.00 0.00 90 1027.6
20190122102124 41 5 3.0 4.0 0.00 0.00 0.00 90 1027.5
20190122101124 41 344 2.0 3.0 0.00 0.00 0.00 90 1027.5
20190122100124 41 342 2.0 3.0 0.00 0.00 0.00 90 1027.3
20190122095126 41 29 2.0 3.0 0.00 0.00 0.00 90 1027.3
20190122094126 41 344 2.0 4.0 0.00 0.00 0.00 90 1027.4
20190122093123 41 13 2.0 4.0 0.00 0.00 0.00 90 1027.2
20190122092123 42 354 3.0 5.0 0.00 0.00 0.00 90 1027.2
20190122091124 42 346 1.0 4.0 0.00 0.00 0.00 90 1027.1
20190122090123 42 335 2.0 4.0 0.00 0.00 0.00 90 1027.1
20190122085124 42 355 1.0 3.0 0.00 0.00 0.00 90 1027.1
20190122084123 43 25 1.0 3.0 0.00 0.00 0.00 90 1027.1
20190122083124 43 348 1.0 3.0 0.00 0.00 0.00 90 1027.0
20190122082125 44 266 0.0 3.0 0.00 0.00 0.00 90 1026.9
20190122081124 45 6 2.0 5.0 0.00 0.00 0.00 90 1026.9
20190122080123 46 8 4.0 5.0 0.00 0.00 0.00 90 1026.8
20190122075124 46 34 4.0 6.0 0.00 0.00 0.00 90 1026.8
20190122074124 45 24 4.0 6.0 0.00 0.00 0.00 90 1026.9
20190122073123 44 14 3.0 6.0 0.00 0.00 0.00 90 1026.8
20190122072124 43 327 1.0 4.0 0.00 0.00 0.00 90 1026.6
20190122071125 43 0 0.0 2.0 0.00 0.00 0.00 90 1026.7
20190122070125 44 280 1.0 2.0 0.00 0.01 0.00 90 1026.7
20190122065124 45 295 1.0 3.0 0.00 0.01 0.00 90 1026.7
20190122064124 46 344 1.0 3.0 0.00 0.01 0.00 90 1026.6
20190122063125 46 358 2.0 6.0 0.00 0.01 0.00 90 1026.7
20190122062124 47 11 2.0 5.0 0.00 0.01 0.00 90 1026.6
20190122061124 47 6 3.0 6.0 0.00 0.01 0.00 90 1026.7
20190122060124 47 347 4.0 6.0 0.00 0.01 0.00 90 1026.6
20190122055123 47 10 4.0 6.0 0.00 0.01 0.00 90 1026.6
20190122054128 48 353 4.0 7.0 0.00 0.01 0.00 90 1026.5
20190122053123 48 333 3.0 7.0 0.00 0.01 0.00 90 1026.3
20190122052123 48 331 3.0 6.0 0.00 0.01 0.00 90 1026.0
20190122051124 48 10 3.0 6.0 0.00 0.01 0.00 90 1026.2
20190122050124 49 31 3.0 5.0 0.00 0.01 0.00 90 1026.3
20190122045127 49 13 3.0 6.0 0.00 0.01 0.00 90 1026.3
20190122044123 49 355 3.0 6.0 0.00 0.01 0.00 90 1026.1
20190122043124 50 20 5.0 6.0 0.00 0.01 0.00 90 1026.0
20190122042124 50 33 5.0 7.0 0.00 0.01 0.00 90 1025.8
20190122041126 50 38 5.0 7.0 0.00 0.02 0.00 90 1025.8
20190122040124 50 12 4.0 7.0 0.00 0.03 0.00 90 1025.7
20190122035123 50 15 4.0 7.0 0.00 0.06 0.00 90 1025.7
20190122034123 50 12 2.0 5.0 0.00 0.06 0.00 90 1025.5
20190122033124 51 346 2.0 4.0 0.00 0.06 0.00 90 1025.3
20190122032128 51 345 3.0 5.0 0.00 0.06 0.00 90 1025.4
20190122031124 51 4 3.0 5.0 0.00 0.06 0.00 90 1025.2
20190122030124 51 24 3.0 5.0 0.00 0.06 0.00 90 1024.9
20190122025124 52 37 2.0 4.0 0.00 0.06 0.00 90 1024.9
20190122024124 52 30 1.0 3.0 0.00 0.06 0.00 90 1024.7
20190122023123 53 2 2.0 5.0 0.00 0.06 0.00 90 1024.6
20190122022124 53 355 3.0 5.0 0.00 0.06 0.00 90 1024.3
20190122021123 53 349 3.0 4.0 0.00 0.06 0.00 90 1024.2
20190122020124 54 1 2.0 4.0 0.00 0.06 0.00 90 1024.2
20190122015124 54 333 3.0 5.0 0.00 0.07 0.00 90 1024.2
20190122014123 55 348 3.0 4.0 0.00 0.11 0.00 90 1024.3
20190122013123 55 338 3.0 5.0 0.00 0.12 0.00 90 1024.1
20190122012123 56 333 2.0 5.0 0.00 0.13 0.00 90 1024.1
20190122011128 57 1 4.0 6.0 0.00 0.14 0.00 90 1023.8
20190122010123 59 358 4.0 7.0 0.00 0.15 0.00 90 1023.7